Weather History for Wolf Point, MT

Change the Weather History Date:

Sunday, March 17, 2013

  Actual Average Record
Temperature  
Mean Temperature 18 °F -  
Max Temperature 30 °F 44 °F 64 °F (2012)
Min Temperature 6 °F 18 °F 6 °F (2013)
Degree Days  
Heating Degree Days 47    
Cooling Degree Days 0    
Moisture  
Dew Point 16 °F    
Average Humidity 80    
Maximum Humidity 93    
Minimum Humidity 67    
Precipitation  
Precipitation 0.19 in 0.01 in 0.19 in (2013)
Month to date precipitation 0.40 0.20  
Year to date precipitation 0.60 0.72  
Sea Level Pressure  
Sea Level Pressure 29.65 in    
Wind  
Wind Speed 14 mph (North)    
Max Wind Speed 31 mph    
Max Gust Speed 44 mph    
Visibility 3 miles    
Events Fog , Snow    
T = Trace of Precipitation, MM = Missing Value Source: NWS Daily Summary

Daily Weather History Graph

Daily Weather History Graph

Search for Another Location

Airport:

Trip Planner

Search our weather history database for the weather conditions in past years. The results will help you decide how hot, cold, wet, or windy it might be!

Date:

Astronomy

Mar. 17, 2013 Rise Set
Actual Time 7:10 AM MDT 7:11 PM MDT
Civil Twilight 6:39 AM MDT 7:42 PM MDT
Nautical Twilight 6:03 AM MDT 8:18 PM MDT
Astronomical Twilight 5:26 AM MDT 8:56 PM MDT
Moon 10:00 AM MDT (3/17) 12:45 AM MDT (3/17)
Length of Visible Light 13h 02m
Length of Day
12h 00m
Waxing Crescent, 32% of the Moon is Illuminated
Mar 17
Waxing Crescent
Mar 19
First Quarter
Mar 27
Full
Apr 2
Last Quarter
Apr 10
New

Hourly Weather History & Observations

Time (MDT) Temp. Windchill Dew Point Humidity Pressure Visibility Wind Dir Wind Speed Gust Speed Precip Events Conditions
12:53 AM 19.0 °F 8.2 °F 14.0 °F 81% 29.95 in 10.0 mi East 9.2 mph - N/A   Overcast
1:53 AM 19.9 °F 7.3 °F 14.0 °F 78% 29.89 in 7.0 mi East 12.7 mph - N/A   Overcast
2:49 AM 17.6 °F 5.7 °F 12.2 °F 79% 29.74 in 9.0 mi ENE 10.4 mph - N/A   Scattered Clouds
2:53 AM 17.1 °F 5.0 °F 12.9 °F 84% 29.85 in 9.0 mi ENE 10.4 mph - N/A   Scattered Clouds
3:53 AM 17.1 °F 3.0 °F 12.0 °F 81% 29.79 in 10.0 mi East 13.8 mph - N/A   Overcast
4:13 AM 17.6 °F 3.2 °F 12.2 °F 79% 29.65 in 2.0 mi East 15.0 mph - 0.00 in Snow Light Snow
4:22 AM 17.6 °F 3.2 °F 12.2 °F 79% 29.64 in 6.0 mi ENE 15.0 mph - 0.00 in Snow Light Snow
4:53 AM 18.0 °F 6.1 °F 14.0 °F 84% 29.74 in 9.0 mi ENE 10.4 mph - 0.00 in   Overcast
5:23 AM 19.4 °F 7.2 °F 14.0 °F 80% 29.61 in 9.0 mi ENE 11.5 mph - N/A   Overcast
5:53 AM 19.9 °F 6.2 °F 15.1 °F 81% 29.69 in 8.0 mi ENE 15.0 mph - N/A   Overcast
6:13 AM 21.2 °F 8.3 °F 15.8 °F 80% 29.58 in 7.0 mi ENE 13.8 mph - N/A   Overcast
6:53 AM 23.0 °F 10.6 °F 18.0 °F 81% 29.64 in 7.0 mi East 13.8 mph - N/A   Overcast
7:28 AM 24.8 °F 16.9 °F 19.4 °F 80% 29.55 in 7.0 mi NE 6.9 mph - N/A   Overcast
7:53 AM 25.0 °F 15.5 °F 21.0 °F 85% 29.63 in 5.0 mi NE 9.2 mph - N/A   Overcast
8:06 AM 24.8 °F 14.6 °F 21.2 °F 86% 29.53 in 1.8 mi ENE 10.4 mph - 0.00 in Snow Light Snow
8:18 AM 24.8 °F 13.4 °F 21.2 °F 86% 29.52 in 1.0 mi ENE 12.7 mph - 0.00 in Snow Light Snow
8:22 AM 24.8 °F 14.0 °F 21.2 °F 86% 29.52 in 1.2 mi ENE 11.5 mph - 0.00 in Snow Light Snow
8:35 AM 24.8 °F 13.4 °F 21.2 °F 86% 29.50 in 2.0 mi ENE 12.7 mph - 0.00 in Snow Light Snow
8:42 AM 26.6 °F 16.2 °F 21.2 °F 80% 29.50 in 1.5 mi ENE 11.5 mph - 0.00 in Snow Light Snow
8:51 AM 26.6 °F 15.7 °F 21.2 °F 80% 29.50 in 2.0 mi ENE 12.7 mph - 0.00 in Snow Light Snow
8:53 AM 26.1 °F 15.6 °F 21.9 °F 84% 29.60 in 1.5 mi ENE 11.5 mph - 0.00 in Snow Light Snow
8:57 AM 26.6 °F 15.7 °F 21.2 °F 80% 29.50 in 0.8 mi ENE 12.7 mph - 0.00 in Snow Light Snow
9:19 AM 26.6 °F 16.2 °F 23.0 °F 86% 29.49 in 0.2 mi ENE 11.5 mph - 0.01 in Fog , Snow Heavy Snow
9:26 AM 26.6 °F 15.2 °F 23.0 °F 86% 29.49 in 0.2 mi ENE 13.8 mph - 0.01 in Fog , Snow Snow
9:36 AM 26.6 °F 15.7 °F 23.0 °F 86% 29.49 in 0.2 mi ENE 12.7 mph - 0.02 in Fog , Snow Snow
9:53 AM 26.1 °F 15.0 °F 23.0 °F 88% 29.57 in 0.2 mi ENE 12.7 mph - 0.03 in Fog , Snow Snow
10:01 AM 26.6 °F 16.2 °F 23.0 °F 86% 29.48 in 0.2 mi ENE 11.5 mph - 0.00 in Fog , Snow Snow
10:53 AM 26.1 °F 15.6 °F 24.1 °F 92% 29.56 in 0.2 mi ENE 11.5 mph - 0.05 in Fog , Snow Snow
11:22 AM 26.6 °F 16.8 °F 24.8 °F 93% 29.46 in 0.2 mi ENE 10.4 mph - 0.02 in Fog , Snow Snow
11:30 AM 26.6 °F 16.8 °F 24.8 °F 93% 29.46 in 0.2 mi ENE 10.4 mph - 0.02 in Fog , Snow Snow
11:39 AM 28.4 °F 19.1 °F 24.8 °F 86% 29.45 in 0.2 mi ENE 10.4 mph - 0.03 in Fog , Snow Heavy Snow
11:53 AM 28.0 °F 20.0 °F 25.0 °F 88% 29.55 in 0.2 mi ENE 8.1 mph - 0.04 in Fog , Snow Snow
12:53 PM 28.9 °F 21.9 °F 26.1 °F 89% 29.55 in 0.2 mi North 6.9 mph - 0.05 in Fog , Snow Snow
1:02 PM 30.2 °F 22.6 °F 26.6 °F 86% 29.47 in 0.5 mi North 8.1 mph - 0.01 in Fog , Snow Snow
1:11 PM 30.2 °F 24.3 °F 26.6 °F 86% 29.47 in 0.5 mi North 5.8 mph - 0.01 in Fog , Snow Snow
1:21 PM 30.2 °F 24.3 °F 26.6 °F 86% 29.48 in 0.8 mi North 5.8 mph - 0.01 in Snow Light Snow
1:28 PM 30.2 °F 24.3 °F 26.6 °F 86% 29.48 in 1.0 mi NW 5.8 mph - 0.01 in Snow Light Snow
1:38 PM 30.2 °F 20.2 °F 26.6 °F 86% 29.48 in 0.8 mi NW 12.7 mph - 0.01 in Snow Light Snow
1:53 PM 28.0 °F 15.7 °F 24.1 °F 85% 29.58 in 0.2 mi WNW 17.3 mph - 0.01 in Fog , Snow Snow
2:11 PM 26.6 °F 12.7 °F 23.0 °F 86% 29.50 in 0.2 mi NW 20.7 mph - 0.00 in Fog , Snow Snow
2:48 PM 26.6 °F 13.1 °F 21.2 °F 80% 29.53 in 0.2 mi NW 19.6 mph - 0.00 in Fog , Snow Snow
2:53 PM 26.1 °F 12.0 °F 21.9 °F 84% 29.63 in 0.2 mi NW 20.7 mph 27.6 mph 0.00 in Fog , Snow Snow
3:01 PM 26.6 °F 12.0 °F 21.2 °F 80% 29.54 in 0.5 mi NW 23.0 mph 31.1 mph 0.00 in Snow Snow
3:18 PM 24.8 °F 11.9 °F 21.2 °F 86% 29.56 in 0.8 mi NW 16.1 mph - 0.00 in Snow Light Snow
3:30 PM 26.6 °F 12.0 °F 19.4 °F 74% 29.56 in 1.2 mi NW 23.0 mph - 0.00 in Snow Light Snow
3:45 PM 24.8 °F 7.9 °F 19.4 °F 80% 29.57 in 1.0 mi NW 29.9 mph 35.7 mph 0.01 in Snow Light Snow
3:53 PM 25.0 °F 9.2 °F 19.0 °F 78% 29.68 in 0.8 mi NW 25.3 mph 35.7 mph 0.01 in Snow Light Snow
4:01 PM 24.8 °F 8.1 °F 17.6 °F 74% 29.59 in 0.8 mi NW 28.8 mph 38.0 mph 0.00 in Snow Light Snow
4:19 PM 19.4 °F 0.2 °F 14.0 °F 80% 29.63 in 0.5 mi NNW 31.1 mph 43.7 mph 0.00 in Snow Snow
4:42 PM 19.4 °F 2.8 °F 12.2 °F 74% 29.66 in 1.2 mi NW 21.9 mph 38.0 mph 0.00 in Snow Light Snow
4:50 PM 17.6 °F -1.0 °F 12.2 °F 79% 29.67 in 1.0 mi NW 26.5 mph 34.5 mph 0.00 in Snow Light Snow
4:53 PM 18.0 °F -0.5 °F 12.0 °F 78% 29.77 in 1.0 mi NW 26.5 mph 34.5 mph 0.00 in Snow Light Snow
5:00 PM 17.6 °F -1.3 °F 10.4 °F 73% 29.68 in 1.2 mi NW 27.6 mph 33.4 mph 0.00 in Snow Light Snow
5:02 PM 17.6 °F -1.0 °F 10.4 °F 73% 29.68 in 1.0 mi NW 26.5 mph 33.4 mph 0.00 in Snow Light Snow
5:11 PM 15.8 °F -2.7 °F 10.4 °F 79% 29.70 in 0.8 mi NW 24.2 mph 31.1 mph 0.00 in Snow Light Snow
5:28 PM 15.8 °F -1.5 °F 10.4 °F 79% 29.72 in 1.2 mi NW 20.7 mph 35.7 mph 0.00 in Snow Light Snow
5:40 PM 15.8 °F -3.1 °F 8.6 °F 73% 29.73 in 2.0 mi NW 25.3 mph 34.5 mph 0.00 in Snow Light Snow
5:50 PM 15.8 °F -2.3 °F 8.6 °F 73% 29.74 in 4.0 mi NW 23.0 mph 29.9 mph 0.00 in   Overcast
5:53 PM 14.0 °F -3.4 °F 8.1 °F 77% 29.85 in 4.0 mi NW 19.6 mph 29.9 mph 0.00 in Snow Light Snow
6:53 PM 12.0 °F -6.9 °F 3.9 °F 70% 29.91 in 5.0 mi NW 21.9 mph 29.9 mph 0.00 in   Haze
7:09 PM 10.4 °F -9.1 °F 3.2 °F 73% 29.81 in 9.0 mi NW 21.9 mph 28.8 mph N/A   Mostly Cloudy
7:17 PM 10.4 °F -7.2 °F 3.2 °F 73% 29.81 in 10.0 mi NW 17.3 mph 26.5 mph N/A   Scattered Clouds
7:28 PM 10.4 °F -9.9 °F 1.4 °F 67% 29.82 in 9.0 mi WNW 24.2 mph 29.9 mph N/A   Mostly Cloudy
7:39 PM 8.6 °F -11.4 °F 1.4 °F 73% 29.82 in 10.0 mi WNW 21.9 mph - N/A   Scattered Clouds
7:53 PM 9.0 °F -10.0 °F 1.0 °F 70% 29.94 in 9.0 mi WNW 19.6 mph 28.8 mph N/A   Partly Cloudy
8:53 PM 7.0 °F -12.1 °F 1.0 °F 77% 29.98 in 3.0 mi NW 18.4 mph - N/A   Haze
9:33 PM 6.8 °F -12.9 °F -2.2 °F 67% 29.89 in 10.0 mi WNW 19.6 mph 26.5 mph N/A   Mostly Cloudy
9:53 PM 7.0 °F -13.6 °F -2.0 °F 67% 30.01 in 10.0 mi WNW 21.9 mph - N/A   Overcast
10:53 PM 7.0 °F -12.1 °F -0.9 °F 70% 30.03 in 3.0 mi WNW 18.4 mph - 0.00 in Snow Light Snow
11:53 PM 7.0 °F -13.6 °F -0.0 °F 73% 30.04 in 5.0 mi NW 21.9 mph - 0.00 in Snow Light Snow